Location: Batang Balui
(2.7000°N, 113.7833°E)
Time: 01:25:28
(UTC+00:00)

FO-29 - Pass Details

Date: 09 April 2023
Orbit: 799 x 1322 km, 98.5° (Epoch: 29 May)

Event Time Altitude Azimuth Distance (km) Brightness Sun altitude
Rises 19:50:57 0° 43° (NE) 3,708 13.2 -37.9°
Reaches altitude 10° 19:54:37 10° 65° (ENE) 2,658 12.5 -37.1°
Maximum altitude 19:57:57 16° 100° (E) 2,194 11.9 -36.2°
Drops below altitude 10° 20:01:08 10° 135° (SE) 2,502 12.0 -35.5°
Sets 20:04:23 0° 157° (SSE) 3,377 12.5 -34.7°
